Flag for Cuba Weather past 2 weeks in Camagüey, Cuba

Now
84 °F

Passing clouds.


Feels Like: 86 °F
Forecast: N/A
Wind: 13 mph from Northeast

Location: Camaguey Aeropuerto

Current Time: Dec 21, 2014 at 4:59:41 PM

Latest Report: Dec 21, 2014 at 3:52 PM


Visibility: N/A

Pressure: 30.01 "Hg

Humidity: 51%

Dew point: 64 °F

Location of CamagüeyLocation

Historic Weather in Camagüey — Graph

°F

Camagüey temperature yesterday

Maximum temperature yesterday: 84 °F (at 1:50 PM)
Minimum temperature yesterday: 63 °F (at 6:50 AM)
Average temperature yesterday: 72 °F

Past Weeks' High & Low Weather Summary

 TemperatureHumidityPressure
High86 °F (Dec 21, 2:50 PM)94% (Dec 8, 12:50 AM)30.18 "Hg (Dec 8, 12:50 AM)
Low59 °F (Dec 10, 10:52 PM)35% (Dec 9, 1:50 PM)29.95 "Hg (Dec 7, 2:50 PM)
Average70 °F73%30.05 "Hg
* Reported Dec 6 2:50 PM — Dec 21 2:50 PM, Camagüey, Weather by CustomWeather, © 2014

Note: Actual official high and low records may vary slightly from our data, if they occured in-between our weather recording intervals... More about our weather records

Advertising

Camagüey weather history for previous 24 hours

 ConditionsComfort  
Time TempWeatherWind HumidityBarometerVisibility
2:50 PM
Dec 21
86 °FScattered clouds.13 mph49%30.01 "HgN/A
1:50 PM84 °FPassing clouds.10 mph48%30.01 "HgN/A
12:51 PM84 °FScattered clouds.9 mph48%30.04 "HgN/A
11:51 AM82 °FScattered clouds.8 mph55%30.07 "HgN/A
10:51 AM81 °FScattered clouds.9 mph62%30.09 "HgN/A
9:50 AM79 °FPartly sunny.12 mph74%30.12 "HgN/A
8:50 AM75 °FSunny.9 mph83%30.09 "Hg10 mi
7:51 AM70 °FPassing clouds.6 mph94%30.09 "Hg6 mi
6:50 AM66 °FFog.5 mph94%30.07 "Hg2 mi
5:51 AM66 °FFog.6 mph94%30.07 "Hg3 mi
4:50 AM66 °FClear.9 mph94%30.04 "Hg6 mi
3:50 AM68 °FClear.7 mph94%30.04 "Hg6 mi
2:50 AM70 °FClear.7 mph88%30.04 "Hg6 mi
1:50 AM68 °FClear.7 mph94%30.07 "Hg6 mi
12:50 AM66 °FClear.8 mph94%30.07 "Hg6 mi
11:51 PM
Dec 20
68 °FPassing clouds.9 mph94%30.07 "Hg6 mi
10:50 PM68 °FPassing clouds.9 mph88%30.07 "Hg6 mi
9:50 PM68 °FPassing clouds.9 mph88%30.07 "Hg6 mi
8:50 PM68 °FPassing clouds.8 mph88%30.07 "Hg6 mi
7:52 PM70 °FPassing clouds.9 mph83%30.07 "Hg6 mi
6:50 PM70 °FPassing clouds.9 mph83%30.04 "Hg6 mi
5:50 PM73 °FClear.10 mph74%30.04 "Hg6 mi
4:50 PM79 °FClear.14 mph61%30.01 "Hg6 mi
Weather by CustomWeather, © 2014

See weather overviewHow to use our weather pages